Location: Crescent
(42.8242°N, 73.7329°W)
Time: 20:37:09
(UTC+00:00)

SR - Pass Details

Date: 20 February 2026
Orbit: 573 x 848 km, 66.7° (Epoch: 6 March)

Event Time Altitude Azimuth Distance (km) Brightness Sun altitude
Rises 16:14:14 0° 338° (NNW) 3,058 ? 35.0°
Reaches altitude 10° 16:16:56 10° 353° (N) 2,190 ? 35.1°
Maximum altitude 16:20:56 23° 46° (NE) 1,540 ? 35.3°
Drops below altitude 10° 16:25:08 10° 99° (E) 2,326 ? 35.5°
Sets 16:28:06 0° 113° (ESE) 3,296 ? 35.6°
